Time,TemperatureF,DewpointF,PressureIn,WindDirection,WindDirectionDegrees,WindSpeedMPH,WindSpeedGustMPH,Humidity,HourlyPrecipIn,Conditions,Clouds,dailyrainin,SoftwareType,DateUTC
2013-03-13 00:02:00,47.3,37.7,30.15,NW,323,3.0,4.0,69,0.00,,,0.00,WeatherTracker,2013-03-13 05:02:00,
2013-03-13 00:08:00,47.2,37.9,30.15,NW,323,2.0,5.0,70,0.00,,,0.00,WeatherTracker,2013-03-13 05:08:00,
2013-03-13 00:13:00,47.1,37.8,30.15,NW,323,3.0,5.0,70,0.00,,,0.00,WeatherTracker,2013-03-13 05:13:00,
2013-03-13 00:18:00,46.9,37.6,30.15,NW,323,2.0,4.0,70,0.00,,,0.00,WeatherTracker,2013-03-13 05:18:00,
2013-03-13 00:23:00,46.8,37.9,30.15,NW,323,4.0,4.0,71,0.00,,,0.00,WeatherTracker,2013-03-13 05:23:00,
2013-03-13 00:28:00,46.7,38.2,30.15,NW,323,4.0,5.0,72,0.00,,,0.00,WeatherTracker,2013-03-13 05:28:00,
2013-03-13 00:33:00,46.7,38.2,30.16,NW,323,4.0,5.0,72,0.00,,,0.00,WeatherTracker,2013-03-13 05:33:00,
2013-03-13 00:38:00,46.7,38.2,30.16,NW,323,4.0,4.0,72,0.00,,,0.00,WeatherTracker,2013-03-13 05:38:00,
2013-03-13 00:43:00,46.7,38.2,30.16,NW,323,3.0,5.0,72,0.00,,,0.00,WeatherTracker,2013-03-13 05:43:00,
2013-03-13 00:48:00,46.6,38.1,30.16,NW,323,3.0,5.0,72,0.00,,,0.00,WeatherTracker,2013-03-13 05:48:00,
2013-03-13 00:53:00,46.5,38.0,30.16,NW,323,4.0,5.0,72,0.00,,,0.00,WeatherTracker,2013-03-13 05:53:00,
2013-03-13 00:58:00,46.3,37.4,30.16,NW,323,4.0,5.0,71,0.00,,,0.00,WeatherTracker,2013-03-13 05:58:00,
2013-03-13 01:03:00,46.2,37.3,30.16,NNW,341,5.0,6.0,71,0.00,,,0.00,WeatherTracker,2013-03-13 06:03:00,
2013-03-13 01:08:00,46.2,37.7,30.16,NNW,346,4.0,7.0,72,0.00,,,0.00,WeatherTracker,2013-03-13 06:08:00,
2013-03-13 01:13:00,46.0,37.5,30.16,NNW,345,4.0,7.0,72,0.00,,,0.00,WeatherTracker,2013-03-13 06:13:00,
2013-03-13 01:19:00,45.7,37.5,30.16,NNW,345,4.0,6.0,73,0.00,,,0.00,WeatherTracker,2013-03-13 06:19:00,
2013-03-13 01:24:00,45.5,37.4,30.16,NNW,340,3.0,6.0,73,0.00,,,0.00,WeatherTracker,2013-03-13 06:24:00,
2013-03-13 01:29:00,45.3,37.5,30.16,NNW,340,3.0,6.0,74,0.00,,,0.00,WeatherTracker,2013-03-13 06:29:00,
2013-03-13 01:34:00,45.2,37.4,30.16,NNW,344,4.0,7.0,74,0.00,,,0.00,WeatherTracker,2013-03-13 06:34:00,
2013-03-13 01:39:00,45.2,37.4,30.16,NNW,339,3.0,7.0,74,0.00,,,0.00,WeatherTracker,2013-03-13 06:39:00,
2013-03-13 01:44:00,45.3,37.5,30.16,NNW,335,5.0,8.0,74,0.00,,,0.00,WeatherTracker,2013-03-13 06:44:00,
2013-03-13 01:49:00,45.3,37.5,30.16,North,350,5.0,8.0,74,0.00,,,0.00,WeatherTracker,2013-03-13 06:49:00,
2013-03-13 01:54:00,45.4,37.3,30.16,North,349,4.0,9.0,73,0.00,,,0.00,WeatherTracker,2013-03-13 06:54:00,
2013-03-13 01:59:00,45.5,37.4,30.16,NNW,335,6.0,9.0,73,0.00,,,0.00,WeatherTracker,2013-03-13 06:59:00,
2013-03-13 02:04:00,45.5,37.4,30.16,NNW,334,4.0,8.0,73,0.00,,,0.00,WeatherTracker,2013-03-13 07:04:00,
2013-03-13 02:09:00,45.4,37.3,30.16,NNW,334,3.0,7.0,73,0.00,,,0.00,WeatherTracker,2013-03-13 07:09:00,
2013-03-13 02:15:00,45.2,37.1,30.16,NNW,348,3.0,6.0,73,0.00,,,0.00,WeatherTracker,2013-03-13 07:15:00,
2013-03-13 02:20:00,44.9,36.8,30.16,NNW,348,4.0,6.0,73,0.00,,,0.00,WeatherTracker,2013-03-13 07:20:00,
2013-03-13 02:25:00,44.7,37.3,30.16,NNW,348,3.0,5.0,75,0.00,,,0.00,WeatherTracker,2013-03-13 07:25:00,
2013-03-13 02:30:00,44.3,37.2,30.16,NNW,348,3.0,5.0,76,0.00,,,0.00,WeatherTracker,2013-03-13 07:30:00,
2013-03-13 02:35:00,43.6,37.2,30.16,NNW,348,4.0,5.0,78,0.00,,,0.00,WeatherTracker,2013-03-13 07:35:00,
2013-03-13 02:40:00,43.1,37.0,30.16,NNW,348,3.0,5.0,79,0.00,,,0.00,WeatherTracker,2013-03-13 07:40:00,
2013-03-13 02:46:00,42.7,37.0,30.16,NNW,348,3.0,5.0,80,0.00,,,0.00,WeatherTracker,2013-03-13 07:46:00,
2013-03-13 02:51:00,42.4,37.0,30.16,NNW,348,3.0,5.0,81,0.00,,,0.00,WeatherTracker,2013-03-13 07:51:00,
2013-03-13 02:56:00,42.5,37.1,30.16,NNW,348,4.0,6.0,81,0.00,,,0.00,WeatherTracker,2013-03-13 07:56:00,
2013-03-13 03:01:00,42.6,36.9,30.16,North,360,4.0,6.0,80,0.00,,,0.00,WeatherTracker,2013-03-13 08:01:00,
2013-03-13 03:06:00,42.7,37.0,30.16,North,360,3.0,6.0,80,0.00,,,0.00,WeatherTracker,2013-03-13 08:06:00,
2013-03-13 03:11:00,42.8,36.7,30.16,North,360,3.0,0.0,79,0.00,,,0.00,WeatherTracker,2013-03-13 08:11:00,
2013-03-13 03:16:00,43.0,36.9,30.16,North,360,3.0,6.0,79,0.00,,,0.00,WeatherTracker,2013-03-13 08:16:00,
2013-03-13 03:21:00,43.1,37.0,30.16,North,360,3.0,6.0,79,0.00,,,0.00,WeatherTracker,2013-03-13 08:21:00,
2013-03-13 03:27:00,43.1,36.7,30.16,North,360,3.0,5.0,78,0.00,,,0.00,WeatherTracker,2013-03-13 08:27:00,
2013-03-13 03:32:00,43.1,36.7,30.16,North,360,3.0,5.0,78,0.00,,,0.00,WeatherTracker,2013-03-13 08:32:00,
2013-03-13 03:37:00,43.0,36.6,30.16,North,360,3.0,5.0,78,0.00,,,0.00,WeatherTracker,2013-03-13 08:37:00,
2013-03-13 03:42:00,42.9,36.5,30.16,North,360,2.0,5.0,78,0.00,,,0.00,WeatherTracker,2013-03-13 08:42:00,
2013-03-13 03:47:00,42.8,36.4,30.17,North,360,2.0,5.0,78,0.00,,,0.00,WeatherTracker,2013-03-13 08:47:00,
2013-03-13 03:52:00,42.6,36.6,30.17,North,360,3.0,4.0,79,0.00,,,0.00,WeatherTracker,2013-03-13 08:52:00,
2013-03-13 03:57:00,42.5,36.5,30.17,North,360,3.0,4.0,79,0.00,,,0.00,WeatherTracker,2013-03-13 08:57:00,
2013-03-13 04:02:00,42.5,36.8,30.17,North,360,2.0,5.0,80,0.00,,,0.00,WeatherTracker,2013-03-13 09:02:00,
2013-03-13 04:07:00,42.4,36.7,30.17,North,360,2.0,5.0,80,0.00,,,0.00,WeatherTracker,2013-03-13 09:07:00,
2013-03-13 04:12:00,42.3,36.6,30.18,North,360,2.0,4.0,80,0.00,,,0.00,WeatherTracker,2013-03-13 09:12:00,
2013-03-13 04:17:00,42.2,36.5,30.17,North,360,1.0,4.0,80,0.00,,,0.00,WeatherTracker,2013-03-13 09:17:00,
2013-03-13 04:22:00,42.0,36.3,30.18,North,360,0.0,2.0,80,0.00,,,0.00,WeatherTracker,2013-03-13 09:22:00,
2013-03-13 04:27:00,41.9,36.2,30.18,North,360,0.0,2.0,80,0.00,,,0.00,WeatherTracker,2013-03-13 09:27:00,
2013-03-13 04:33:00,41.7,36.0,30.18,North,360,0.0,0.0,80,0.00,,,0.00,WeatherTracker,2013-03-13 09:33:00,
2013-03-13 04:38:00,41.6,35.9,30.18,North,360,0.0,0.0,80,0.00,,,0.00,WeatherTracker,2013-03-13 09:38:00,
2013-03-13 04:43:00,41.4,35.7,30.18,North,360,1.0,2.0,80,0.00,,,0.00,WeatherTracker,2013-03-13 09:43:00,
2013-03-13 04:48:00,41.3,35.9,30.18,North,360,0.0,2.0,81,0.00,,,0.00,WeatherTracker,2013-03-13 09:48:00,
2013-03-13 04:53:00,41.2,35.8,30.18,North,360,0.0,1.0,81,0.00,,,0.00,WeatherTracker,2013-03-13 09:53:00,
2013-03-13 04:58:00,41.1,36.0,30.18,North,360,0.0,0.0,82,0.00,,,0.00,WeatherTracker,2013-03-13 09:58:00,
2013-03-13 05:03:00,40.9,35.8,30.18,North,360,0.0,0.0,82,0.00,,,0.00,WeatherTracker,2013-03-13 10:03:00,
2013-03-13 05:08:00,40.8,35.7,30.18,North,360,0.0,0.0,82,0.00,,,0.00,WeatherTracker,2013-03-13 10:08:00,
2013-03-13 05:13:00,40.7,35.6,30.19,North,360,0.0,0.0,82,0.00,,,0.00,WeatherTracker,2013-03-13 10:13:00,
2013-03-13 05:18:00,40.6,35.5,30.19,North,360,0.0,0.0,82,0.00,,,0.00,WeatherTracker,2013-03-13 10:18:00,
2013-03-13 05:23:00,40.6,35.5,30.19,North,360,0.0,0.0,82,0.00,,,0.00,WeatherTracker,2013-03-13 10:23:00,
2013-03-13 05:28:00,40.5,35.4,30.20,North,360,0.0,0.0,82,0.00,,,0.00,WeatherTracker,2013-03-13 10:28:00,
2013-03-13 05:33:00,40.5,35.8,30.20,North,360,0.0,0.0,83,0.00,,,0.00,WeatherTracker,2013-03-13 10:33:00,
2013-03-13 05:38:00,40.5,35.8,30.20,North,360,0.0,0.0,83,0.00,,,0.00,WeatherTracker,2013-03-13 10:38:00,
2013-03-13 05:43:00,40.4,36.0,30.20,North,360,0.0,0.0,84,0.00,,,0.00,WeatherTracker,2013-03-13 10:43:00,
2013-03-13 05:48:00,40.4,36.0,30.20,North,360,0.0,0.0,84,0.00,,,0.00,WeatherTracker,2013-03-13 10:48:00,
2013-03-13 05:53:00,40.3,35.9,30.21,North,360,0.0,0.0,84,0.00,,,0.00,WeatherTracker,2013-03-13 10:53:00,
2013-03-13 05:59:00,40.2,35.8,30.21,North,360,0.0,0.0,84,0.00,,,0.00,WeatherTracker,2013-03-13 10:59:00,
2013-03-13 06:04:00,40.0,35.6,30.21,North,360,0.0,0.0,84,0.00,,,0.00,WeatherTracker,2013-03-13 11:04:00,
2013-03-13 06:09:00,40.0,35.9,30.21,North,360,0.0,0.0,85,0.00,,,0.00,WeatherTracker,2013-03-13 11:09:00,
2013-03-13 06:14:00,39.8,35.7,30.21,North,360,0.0,0.0,85,0.00,,,0.00,WeatherTracker,2013-03-13 11:14:00,
2013-03-13 06:19:00,39.7,35.9,30.21,North,360,0.0,0.0,86,0.00,,,0.00,WeatherTracker,2013-03-13 11:19:00,
2013-03-13 06:24:00,39.7,35.9,30.22,North,360,0.0,0.0,86,0.00,,,0.00,WeatherTracker,2013-03-13 11:24:00,
2013-03-13 06:29:00,39.6,35.8,30.22,North,360,0.0,0.0,86,0.00,,,0.00,WeatherTracker,2013-03-13 11:29:00,
2013-03-13 06:34:00,39.6,35.5,30.22,North,360,0.0,0.0,85,0.00,,,0.00,WeatherTracker,2013-03-13 11:34:00,
2013-03-13 06:39:00,39.5,35.4,30.22,North,360,0.0,0.0,85,0.00,,,0.00,WeatherTracker,2013-03-13 11:39:00,
2013-03-13 06:44:00,39.5,35.7,30.22,North,360,0.0,0.0,86,0.00,,,0.00,WeatherTracker,2013-03-13 11:44:00,
2013-03-13 06:49:00,39.6,35.8,30.23,North,360,0.0,0.0,86,0.00,,,0.00,WeatherTracker,2013-03-13 11:49:00,
2013-03-13 06:54:00,39.8,35.7,30.23,North,360,0.0,0.0,85,0.00,,,0.00,WeatherTracker,2013-03-13 11:54:00,
2013-03-13 06:59:00,39.8,35.7,30.23,North,360,0.0,0.0,85,0.00,,,0.00,WeatherTracker,2013-03-13 11:59:00,
2013-03-13 07:04:00,39.8,36.0,30.23,North,360,0.0,0.0,86,0.00,,,0.00,WeatherTracker,2013-03-13 12:04:00,
2013-03-13 07:09:00,39.8,36.0,30.23,North,360,0.0,0.0,86,0.00,,,0.00,WeatherTracker,2013-03-13 12:09:00,
2013-03-13 07:14:00,39.7,35.9,30.24,North,360,0.0,0.0,86,0.00,,,0.00,WeatherTracker,2013-03-13 12:14:00,
2013-03-13 07:19:00,39.7,35.9,30.24,North,360,0.0,0.0,86,0.00,,,0.00,WeatherTracker,2013-03-13 12:19:00,
2013-03-13 07:24:00,39.7,35.9,30.24,North,360,0.0,0.0,86,0.00,,,0.00,WeatherTracker,2013-03-13 12:24:00,
2013-03-13 07:29:00,40.0,36.7,30.24,North,360,0.0,0.0,88,0.00,,,0.00,WeatherTracker,2013-03-13 12:29:00,
2013-03-13 07:34:00,40.9,37.3,30.24,North,360,0.0,0.0,87,0.00,,,0.00,WeatherTracker,2013-03-13 12:34:00,
2013-03-13 07:39:00,41.8,37.6,30.25,North,360,0.0,0.0,85,0.00,,,0.00,WeatherTracker,2013-03-13 12:39:00,
2013-03-13 07:44:00,42.7,38.2,30.25,North,360,4.0,4.0,84,0.00,,,0.00,WeatherTracker,2013-03-13 12:44:00,
2013-03-13 07:50:00,43.4,38.3,30.25,North,360,2.0,4.0,82,0.00,,,0.00,WeatherTracker,2013-03-13 12:50:00,
2013-03-13 07:55:00,44.0,38.6,30.25,North,360,3.0,4.0,81,0.00,,,0.00,WeatherTracker,2013-03-13 12:55:00,
2013-03-13 08:00:00,44.5,38.4,30.25,NW,316,4.0,5.0,79,0.00,,,0.00,WeatherTracker,2013-03-13 13:00:00,
2013-03-13 08:05:00,44.9,38.1,30.25,NW,309,4.0,7.0,77,0.00,,,0.00,WeatherTracker,2013-03-13 13:05:00,
2013-03-13 08:10:00,45.3,37.9,30.26,NW,314,4.0,7.0,75,0.00,,,0.00,WeatherTracker,2013-03-13 13:10:00,
2013-03-13 08:15:00,45.7,37.9,30.26,NW,326,5.0,7.0,74,0.00,,,0.00,WeatherTracker,2013-03-13 13:15:00,
2013-03-13 08:20:00,46.2,38.7,30.26,WNW,300,5.0,7.0,75,0.00,,,0.00,WeatherTracker,2013-03-13 13:20:00,
2013-03-13 08:25:00,46.8,38.6,30.26,NNW,334,5.0,7.0,73,0.00,,,0.00,WeatherTracker,2013-03-13 13:25:00,
2013-03-13 08:30:00,47.2,38.3,30.26,NW,323,4.0,7.0,71,0.00,,,0.00,WeatherTracker,2013-03-13 13:30:00,
2013-03-13 08:35:00,47.9,38.6,30.26,NW,323,5.0,7.0,70,0.00,,,0.00,WeatherTracker,2013-03-13 13:35:00,
2013-03-13 08:40:00,48.5,38.8,30.26,NW,319,5.0,6.0,69,0.00,,,0.00,WeatherTracker,2013-03-13 13:40:00,
2013-03-13 08:45:00,49.1,38.6,30.26,NW,319,4.0,7.0,67,0.00,,,0.00,WeatherTracker,2013-03-13 13:45:00,
2013-03-13 08:50:00,49.9,39.0,30.26,NW,323,3.0,7.0,66,0.00,,,0.00,WeatherTracker,2013-03-13 13:50:00,
2013-03-13 08:55:00,50.5,38.8,30.27,WNW,282,2.0,6.0,64,0.00,,,0.00,WeatherTracker,2013-03-13 13:55:00,
2013-03-13 09:00:00,51.4,39.2,30.27,NW,310,3.0,5.0,63,0.00,,,0.00,WeatherTracker,2013-03-13 14:00:00,
2013-03-13 09:06:00,51.9,38.9,30.26,NNW,331,4.0,7.0,61,0.00,,,0.00,WeatherTracker,2013-03-13 14:06:00,
2013-03-13 09:11:00,52.2,38.7,30.27,WNW,298,4.0,7.0,60,0.00,,,0.00,WeatherTracker,2013-03-13 14:11:00,
2013-03-13 09:16:00,52.8,40.1,30.27,North,10,6.0,7.0,62,0.00,,,0.00,WeatherTracker,2013-03-13 14:16:00,
2013-03-13 09:21:00,53.1,39.2,30.27,North,360,7.0,9.0,59,0.00,,,0.00,WeatherTracker,2013-03-13 14:21:00,
2013-03-13 09:26:00,53.3,40.2,30.27,North,360,8.0,9.0,61,0.00,,,0.00,WeatherTracker,2013-03-13 14:26:00,
2013-03-13 09:31:00,53.2,40.1,30.27,North,5,7.0,11.0,61,0.00,,,0.00,WeatherTracker,2013-03-13 14:31:00,
2013-03-13 09:36:00,53.6,40.9,30.27,NNE,23,6.0,11.0,62,0.00,,,0.00,WeatherTracker,2013-03-13 14:36:00,
2013-03-13 09:41:00,54.1,40.1,30.27,North,351,6.0,11.0,59,0.00,,,0.00,WeatherTracker,2013-03-13 14:41:00,
2013-03-13 09:46:00,54.3,38.0,30.27,NNW,343,4.0,11.0,54,0.00,,,0.00,WeatherTracker,2013-03-13 14:46:00,
2013-03-13 09:51:00,54.9,40.0,30.28,NNE,13,8.0,10.0,57,0.00,,,0.00,WeatherTracker,2013-03-13 14:51:00,
2013-03-13 09:56:00,55.5,40.1,30.28,NW,319,4.0,9.0,56,0.00,,,0.00,WeatherTracker,2013-03-13 14:56:00,
2013-03-13 10:02:00,56.3,39.9,30.27,North,5,8.0,11.0,54,0.00,,,0.00,WeatherTracker,2013-03-13 15:02:00,
2013-03-13 10:07:00,56.4,37.5,30.27,North,355,8.0,12.0,49,0.00,,,0.00,WeatherTracker,2013-03-13 15:07:00,
2013-03-13 10:12:00,56.4,36.4,30.27,NNW,340,11.0,15.0,47,0.00,,,0.00,WeatherTracker,2013-03-13 15:12:00,
2013-03-13 10:17:00,56.2,35.1,30.28,NNE,13,10.0,15.0,45,0.00,,,0.00,WeatherTracker,2013-03-13 15:17:00,
2013-03-13 10:22:00,56.1,36.1,30.28,North,10,12.0,16.0,47,0.00,,,0.00,WeatherTracker,2013-03-13 15:22:00,
2013-03-13 10:27:00,56.3,35.8,30.28,NNW,346,10.0,16.0,46,0.00,,,0.00,WeatherTracker,2013-03-13 15:27:00,
2013-03-13 10:32:00,56.4,36.4,30.28,NNE,24,12.0,15.0,47,0.00,,,0.00,WeatherTracker,2013-03-13 15:32:00,
2013-03-13 10:37:00,56.8,36.8,30.28,NNW,329,9.0,13.0,47,0.00,,,0.00,WeatherTracker,2013-03-13 15:37:00,
2013-03-13 10:42:00,57.3,36.7,30.28,North,355,10.0,12.0,46,0.00,,,0.00,WeatherTracker,2013-03-13 15:42:00,
2013-03-13 10:47:00,57.7,35.4,30.28,NW,321,5.0,12.0,43,0.00,,,0.00,WeatherTracker,2013-03-13 15:47:00,
2013-03-13 10:52:00,58.0,36.2,30.28,NW,305,6.0,11.0,44,0.00,,,0.00,WeatherTracker,2013-03-13 15:52:00,
2013-03-13 10:57:00,58.3,35.3,30.28,North,360,12.0,15.0,42,0.00,,,0.00,WeatherTracker,2013-03-13 15:57:00,
2013-03-13 11:02:00,58.2,35.2,30.28,North,355,8.0,15.0,42,0.00,,,0.00,WeatherTracker,2013-03-13 16:02:00,
2013-03-13 11:07:00,58.2,37.0,30.29,North,355,6.0,15.0,45,0.00,,,0.00,WeatherTracker,2013-03-13 16:07:00,
2013-03-13 11:12:00,58.2,35.8,30.28,NNE,15,13.0,15.0,43,0.00,,,0.00,WeatherTracker,2013-03-13 16:12:00,
2013-03-13 11:17:00,58.5,36.1,30.28,NNE,22,6.0,13.0,43,0.00,,,0.00,WeatherTracker,2013-03-13 16:17:00,
2013-03-13 11:22:00,58.8,35.8,30.28,NW,308,12.0,13.0,42,0.00,,,0.00,WeatherTracker,2013-03-13 16:22:00,
2013-03-13 11:27:00,59.4,37.5,30.28,WNW,295,10.0,13.0,44,0.00,,,0.00,WeatherTracker,2013-03-13 16:27:00,